Orbital Elements
Epoch 2025 May 5.0 TT = JDT 2460800.5
T 2025 Mar. 10.39582 TT Pike
q 3.4324141 (2000.0) P Q
z -0.0108340 Peri. 290.51437 -0.86072728 -0.48590688
+/-0.0000013 Node 139.17659 -0.33578373 +0.76603698
e 1.0371868 Incl. 166.57307 -0.38261970 +0.42081093
From 985 observations 2024 June 14-2025 July 24, mean residual 0".6.
|